Weather History for RPLC - November, 2012

Change the Weather History Date:

Saturday, November 10, 2012

  Actual Average (RPLB) Record (RPLB)
Temperature  
Mean Temperature 81 °F -  
Max Temperature 89 °F 87 °F 92 °F (2012)
Min Temperature 73 °F 75 °F 73 °F (1997)
Cooling Degree Days 16    
Growing Degree Days 31 (Base 50)    
Moisture  
Dew Point 71 °F    
Average Humidity 74    
Maximum Humidity 88    
Minimum Humidity 55    
Precipitation  
Precipitation 0.00 in - - ()
Sea Level Pressure  
Sea Level Pressure 29.88 in    
Wind  
Wind Speed 5 mph ()    
Max Wind Speed 12 mph    
Max Gust Speed 26 mph    
Visibility 6.1 miles    
Events      
Averages and records for this station are not official NWS values.
T = Trace of Precipitation, MM = Missing Value Source: Averaged Metar Reports

Daily Weather History Graph

Daily Weather History Graph

Search for Another Location

Airport or City:

Trip Planner

Search our weather history database for the weather conditions in past years. The results will help you decide how hot, cold, wet, or windy it might be!

Date:

Astronomy

Nov. 10, 2012 Rise Set
Actual Time 5:57 AM PHT 5:25 PM PHT
Civil Twilight 5:34 AM PHT 5:48 PM PHT
Nautical Twilight 5:09 AM PHT 6:14 PM PHT
Astronomical Twilight 4:43 AM PHT 6:39 PM PHT
Moon 2:01 AM PHT (11/10) 2:20 PM PHT (11/10)
Length of Visible Light 12h 13m
Length of Day
11h 28m
Waning Crescent, 19% of the Moon is Illuminated
Nov 10
Waning Crescent
Nov 14
New
Nov 20
First Quarter
Nov 28
Full
Dec 6
Last Quarter

Hourly Weather History & Observations

Time (PHT) Temp. Heat Index Dew Point Humidity Pressure Visibility Wind Dir Wind Speed Gust Speed Precip Events Conditions
12:00 AM 75.2 °F - 69.8 °F 83% 29.92 in 6.2 mi Variable 2.3 mph 20.7 mph N/A   Mostly Cloudy
1:00 AM 73.4 °F - 69.8 °F 88% 29.89 in 6.2 mi West 3.5 mph - N/A   Scattered Clouds
2:00 AM 73.4 °F - 69.8 °F 88% 29.86 in 6.2 mi West 4.6 mph - N/A   Scattered Clouds
3:00 AM 73.4 °F - 69.8 °F 88% 29.86 in 6.2 mi West 6.9 mph - N/A   Mostly Cloudy
4:00 AM 75.2 °F - 69.8 °F 83% 29.86 in 6.2 mi West 5.8 mph - N/A   Mostly Cloudy
5:00 AM 75.2 °F - 69.8 °F 83% 29.86 in 6.2 mi West 5.8 mph - N/A   Mostly Cloudy
6:00 AM 77.0 °F - 71.6 °F 83% 29.89 in 6.2 mi West 4.6 mph - N/A   Overcast
7:00 AM 77.0 °F - 71.6 °F 83% 29.92 in 6.2 mi North 4.6 mph - N/A   Mostly Cloudy
8:00 AM 80.6 °F 84.6 °F 71.6 °F 74% 29.92 in 5.0 mi NNW 4.6 mph - N/A   Mostly Cloudy
9:00 AM 80.6 °F 84.6 °F 71.6 °F 74% 29.95 in 6.2 mi NNE 4.6 mph - N/A   Mostly Cloudy
10:00 AM 84.2 °F 89.6 °F 71.6 °F 66% 29.92 in 6.2 mi NW 4.6 mph - N/A   Scattered Clouds
11:00 AM 87.8 °F 93.8 °F 71.6 °F 58% 29.92 in 6.2 mi NE 9.2 mph - N/A   Mostly Cloudy
12:00 PM 87.8 °F 93.8 °F 71.6 °F 58% 29.89 in 6.2 mi NE 8.1 mph - N/A   Mostly Cloudy
1:00 PM 89.6 °F 96.2 °F 71.6 °F 55% 29.86 in 6.2 mi East 11.5 mph - N/A   Mostly Cloudy
2:00 PM 86.0 °F 91.8 °F 71.6 °F 62% 29.83 in 6.2 mi ENE 9.2 mph - N/A   Mostly Cloudy
3:00 PM 86.0 °F 91.8 °F 71.6 °F 62% 29.83 in 6.2 mi ENE 8.1 mph - N/A   Mostly Cloudy
4:00 PM 86.0 °F 91.8 °F 71.6 °F 62% 29.83 in 6.2 mi East 6.9 mph - N/A   Scattered Clouds
5:00 PM 84.2 °F 89.6 °F 71.6 °F 66% 29.83 in 6.2 mi ENE 6.9 mph - N/A   Mostly Cloudy
6:00 PM 80.6 °F 83.9 °F 69.8 °F 70% 29.86 in 6.2 mi East 5.8 mph - N/A   Mostly Cloudy
7:00 PM 80.6 °F 83.9 °F 69.8 °F 70% 29.86 in - North - - N/A   Mostly Cloudy
8:00 PM 78.8 °F - 69.8 °F 74% 29.89 in 6.2 mi SW 3.5 mph 26.5 mph N/A   Mostly Cloudy
9:00 PM 75.2 °F - 69.8 °F 83% 29.89 in 6.2 mi West 5.8 mph - N/A   Mostly Cloudy
10:00 PM 75.2 °F - 69.8 °F 83% 29.92 in 6.2 mi West 4.6 mph 16.1 mph N/A   Mostly Cloudy
11:00 PM 73.4 °F - 69.8 °F 88% 29.92 in 6.2 mi WNW 5.8 mph - N/A   Mostly Cloudy